Location: ??????
(38.0131°N, 23.7723°E)
Time: 20:51:54
(UTC+00:00)

METEOR 2-5 DEB - Pass Details

Date: 14 August 2022
Orbit: 809 x 848 km, 81.2° (Epoch: 04 October)

Event Time Altitude Azimuth Distance (km) Brightness Sun altitude
Rises 19:45:08 0° 348° (NNW) 3,355 ? -25.1°
Reaches altitude 10° 19:47:33 10° 347° (NNW) 2,414 ? -25.5°
Maximum altitude 19:52:58 72° 264° (W) 854 ? -26.2°
Enters shadow 19:53:47 61° 210° (SSW) 918 ? -26.3°
